GFSGBSN_prec_precacc12_195.txt.gz
Total_Precipitation_Accumulation
0.00 0.00 0.00 0.00 0.00 0.00 0.00 0.00 0.00 0.00 0.00 0.00 0.00 0.00 0.00 0.00 0.00 0.00 0.00 0.00 0.00 0.00 0.00 0.00 0.00 0.00 0.00 0.00 0.00 0.00 0.00 0.00 0.00 0.00 0.00 0.00 0.00 0.00 0.00 0.00 0.00 0.00 0.00 0.00 0.00 0.00 0.00
0.00 0.00 0.00 0.00 0.00 0.01 0.00 0.00 0.00 0.00 0.00 0.00 0.00 0.00 0.00 0.00 0.00 0.00 0.00 0.00 0.00 0.00 0.00 0.00 0.00 0.00 0.00 0.00 0.00 0.00 0.00 0.00 0.00 0.00 0.00 0.00 0.00 0.00 0.00 0.00 0.00 0.00 0.00 0.00 0.00 0.00 0.00
0.00 0.00 0.00 0.00 0.00 0.00 0.00 0.00 0.00 0.00 0.00 0.00 0.00 0.00 0.00 0.00 0.00 0.00 0.00 0.00 0.00 0.00 0.00 0.00 0.00 0.00 0.00 0.00 0.00 0.00 0.00 0.00 0.00 0.00 0.00 0.00 0.00 0.00 0.00 0.00 0.00 0.00 0.00 0.00 0.00 0.00 0.00
0.00 0.00 0.00 0.00 0.00 0.01 0.00 0.00 0.00 0.00 0.00 0.00 0.00 0.00 0.00 0.00 0.00 0.00 0.00 0.00 0.00 0.00 0.00 0.00 0.00 0.00 0.00 0.00 0.00 0.00 0.00 0.00 0.00 0.00 0.00 0.00 0.00 0.00 0.00 0.00 0.00 0.00 0.00 0.00 0.00 0.00 0.00
0.00 0.00 0.00 0.01 0.02 0.03 0.03 0.01 0.01 0.00 0.00 0.00 0.00 0.00 0.00 0.00 0.00 0.00 0.00 0.00 0.00 0.00 0.00 0.00 0.00 0.00 0.00 0.00 0.00 0.00 0.00 0.00 0.00 0.00 0.00 0.00 0.00 0.00 0.00 0.00 0.00 0.00 0.00 0.00 0.00 0.00 0.00
0.01 0.00 0.02 0.02 0.04 0.03 0.05 0.08 0.07 0.04 0.02 0.01 0.00 0.00 0.00 0.00 0.00 0.00 0.00 0.00 0.00 0.00 0.00 0.00 0.00 0.00 0.00 0.00 0.00 0.00 0.00 0.00 0.00 0.00 0.00 0.00 0.00 0.00 0.00 0.00 0.00 0.00 0.00 0.00 0.00 0.00 0.00
0.13 0.07 0.05 0.06 0.09 0.15 0.18 0.12 0.09 0.07 0.06 0.05 0.03 0.02 0.01 0.01 0.00 0.00 0.00 0.00 0.00 0.00 0.00 0.00 0.00 0.00 0.00 0.00 0.00 0.00 0.00 0.00 0.00 0.00 0.00 0.00 0.00 0.00 0.00 0.00 0.00 0.00 0.00 0.00 0.00 0.00 0.00
0.48 0.38 0.36 0.32 0.32 0.37 0.35 0.34 0.30 0.22 0.17 0.11 0.07 0.05 0.04 0.03 0.02 0.01 0.00 0.00 0.00 0.00 0.00 0.00 0.00 0.00 0.00 0.00 0.00 0.00 0.00 0.00 0.00 0.00 0.00 0.00 0.00 0.00 0.00 0.00 0.00 0.00 0.00 0.00 0.00 0.00 0.00
0.93 1.01 0.95 0.86 0.78 0.77 0.69 0.52 0.40 0.34 0.27 0.19 0.14 0.11 0.08 0.06 0.05 0.02 0.00 0.00 0.00 0.00 0.00 0.00 0.00 0.00 0.00 0.00 0.00 0.00 0.00 0.00 0.00 0.00 0.00 0.00 0.00 0.00 0.00 0.00 0.00 0.00 0.00 0.00 0.00 0.00 0.00
0.93 1.02 1.09 1.11 1.05 0.95 0.76 0.62 0.51 0.45 0.40 0.32 0.23 0.16 0.11 0.09 0.07 0.01 0.02 0.01 0.00 0.00 0.06 0.02 0.00 0.00 0.00 0.00 0.00 0.00 0.00 0.00 0.00 0.00 0.00 0.00 0.00 0.00 0.00 0.00 0.00 0.00 0.00 0.00 0.00 0.00 0.00
1.05 1.13 1.19 1.16 1.24 1.17 0.90 0.63 0.45 0.43 0.38 0.30 0.24 0.20 0.16 0.10 0.09 0.09 0.07 0.02 0.01 0.06 0.42 0.07 0.00 0.00 0.00 0.00 0.00 0.00 0.00 0.00 0.00 0.00 0.00 0.00 0.00 0.00 0.00 0.00 0.00 0.00 0.00 0.00 0.00 0.00 0.00
0.84 0.97 1.13 1.21 1.42 1.48 1.37 1.15 0.87 0.57 0.39 0.36 0.31 0.23 0.16 0.16 0.13 0.12 0.07 0.03 0.07 0.43 0.62 0.06 0.00 0.00 0.00 0.00 0.00 0.00 0.00 0.00 0.00 0.00 0.00 0.00 0.00 0.00 0.00 0.00 0.00 0.00 0.00 0.00 0.00 0.00 0.00
0.70 0.88 0.97 0.97 1.10 1.25 1.32 1.36 1.25 1.03 0.88 0.73 0.57 0.43 0.29 0.18 0.22 0.11 0.08 0.11 0.40 0.69 0.27 0.03 0.00 0.00 0.00 0.00 0.00 0.00 0.00 0.00 0.00 0.00 0.00 0.00 0.00 0.00 0.00 0.00 0.00 0.00 0.00 0.00 0.00 0.00 0.00
0.54 0.60 0.68 0.85 0.93 1.02 1.14 1.20 1.23 1.19 1.13 1.02 0.88 0.76 0.59 0.48 0.29 0.14 0.14 0.29 0.58 0.37 0.07 0.01 0.00 0.00 0.00 0.00 0.00 0.00 0.00 0.00 0.00 0.00 0.00 0.00 0.00 0.00 0.00 0.00 0.00 0.00 0.00 0.00 0.00 0.00 0.00
0.38 0.47 0.52 0.56 0.62 0.74 0.87 1.01 1.09 1.11 1.04 0.88 0.72 0.72 0.66 0.61 0.31 0.19 0.31 0.46 0.32 0.16 0.06 0.01 0.00 0.00 0.00 0.00 0.00 0.00 0.00 0.00 0.00 0.00 0.00 0.01 0.01 0.00 0.00 0.00 0.00 0.00 0.00 0.00 0.00 0.00 0.00
0.31 0.33 0.34 0.40 0.47 0.56 0.64 0.66 0.66 0.67 0.67 0.60 0.61 0.67 0.74 0.53 0.38 0.37 0.45 0.32 0.12 0.03 0.00 0.01 0.02 0.01 0.01 0.01 0.00 0.00 0.00 0.00 0.00 0.00 0.00 0.01 0.02 0.00 0.00 0.00 0.00 0.01 0.01 0.05 0.06 0.10 0.06
0.24 0.28 0.28 0.27 0.32 0.35 0.42 0.40 0.48 0.47 0.37 0.39 0.45 0.53 0.53 0.33 0.37 0.40 0.31 0.14 0.04 0.00 0.00 0.02 0.02 0.01 0.01 0.01 0.00 0.00 0.00 0.00 0.00 0.00 0.00 0.00 0.03 0.02 0.00 0.02 0.05 0.10 0.16 0.23 0.28 0.29 0.36
0.41 0.32 0.29 0.25 0.26 0.25 0.27 0.24 0.27 0.25 0.24 0.27 0.25 0.23 0.25 0.26 0.31 0.23 0.10 0.03 0.01 0.00 0.00 0.01 0.00 0.01 0.01 0.01 0.01 0.00 0.00 0.00 0.00 0.00 0.00 0.00 0.01 0.03 0.00 0.00 0.00 0.02 0.06 0.13 0.45 0.28 0.26
0.64 0.56 0.40 0.36 0.30 0.28 0.27 0.24 0.20 0.16 0.16 0.16 0.16 0.16 0.18 0.18 0.17 0.09 0.03 0.01 0.01 0.01 0.01 0.01 0.01 0.00 0.01 0.01 0.02 0.00 0.00 0.00 0.00 0.00 0.00 0.02 0.03 0.03 0.01 0.00 0.00 0.01 0.01 0.02 0.13 0.24 0.20
0.85 0.76 0.57 0.47 0.44 0.37 0.34 0.31 0.26 0.22 0.20 0.03 0.03 0.17 0.26 0.23 0.12 0.03 0.03 0.03 0.01 0.01 0.01 0.02 0.01 0.02 0.03 0.03 0.03 0.04 0.01 0.00 0.00 0.00 0.01 0.07 0.08 0.05 0.04 0.00 0.00 0.03 0.04 0.06 0.19 0.36 0.26
0.85 0.74 0.73 0.56 0.46 0.41 0.37 0.37 0.33 0.33 0.15 0.02 0.02 0.05 0.07 0.12 0.10 0.05 0.06 0.04 0.03 0.05 0.02 0.01 0.01 0.02 0.04 0.05 0.02 0.02 0.03 0.01 0.01 0.00 0.01 0.10 0.13 0.05 0.04 0.01 0.01 0.01 0.01 0.01 0.05 0.08 0.14
0.72 0.56 0.59 0.59 0.49 0.42 0.42 0.37 0.29 0.15 0.03 0.02 0.03 0.02 0.01 0.02 0.02 0.03 0.04 0.02 0.01 0.02 0.01 0.00 0.00 0.00 0.00 0.01 0.01 0.00 0.01 0.01 0.03 0.02 0.02 0.05 0.16 0.06 0.05 0.01 0.00 0.01 0.00 0.00 0.00 0.00 0.01
0.46 0.46 0.46 0.49 0.48 0.41 0.32 0.23 0.13 0.05 0.01 0.01 0.01 0.00 0.02 0.03 0.01 0.02 0.02 0.00 0.00 0.00 0.00 0.00 0.00 0.00 0.00 0.00 0.00 0.00 0.00 0.00 0.00 0.01 0.03 0.09 0.14 0.14 0.12 0.02 0.06 0.10 0.00 0.00 0.00 0.01 0.01
0.25 0.35 0.33 0.32 0.32 0.32 0.22 0.14 0.08 0.02 0.00 0.00 0.00 0.00 0.03 0.04 0.02 0.01 0.01 0.00 0.00 0.00 0.00 0.00 0.00 0.00 0.00 0.00 0.00 0.00 0.00 0.00 0.00 0.00 0.00 0.02 0.05 0.15 0.17 0.09 0.21 0.06 0.00 0.00 0.01 0.00 0.00
0.12 0.12 0.14 0.15 0.15 0.13 0.11 0.09 0.04 0.01 0.00 0.01 0.00 0.00 0.04 0.05 0.02 0.01 0.00 0.00 0.00 0.00 0.00 0.00 0.00 0.00 0.00 0.00 0.01 0.01 0.00 0.01 0.00 0.00 0.00 0.00 0.02 0.09 0.16 0.12 0.07 0.00 0.01 0.02 0.06 0.10 0.02
0.04 0.04 0.01 0.01 0.02 0.04 0.03 0.03 0.01 0.00 0.00 0.00 0.00 0.00 0.02 0.04 0.03 0.00 0.00 0.00 0.00 0.00 0.00 0.00 0.00 0.00 0.00 0.01 0.05 0.04 0.01 0.02 0.02 0.01 0.01 0.01 0.05 0.15 0.19 0.22 0.08 0.00 0.00 0.00 0.02 0.08 0.02
0.03 0.03 0.01 0.00 0.00 0.00 0.00 0.00 0.00 0.02 0.01 0.03 0.01 0.00 0.01 0.04 0.02 0.00 0.00 0.00 0.00 0.00 0.01 0.01 0.01 0.01 0.03 0.07 0.08 0.05 0.03 0.03 0.06 0.04 0.04 0.10 0.18 0.25 0.17 0.19 0.06 0.00 0.00 0.01 0.10 0.08 0.05
0.02 0.01 0.00 0.00 0.00 0.00 0.00 0.00 0.00 0.02 0.02 0.03 0.03 0.02 0.06 0.05 0.03 0.00 0.00 0.00 0.00 0.01 0.02 0.04 0.03 0.06 0.08 0.14 0.15 0.19 0.15 0.11 0.10 0.05 0.05 0.10 0.19 0.24 0.24 0.28 0.17 0.05 0.03 0.07 0.05 0.02 0.02
0.00 0.00 0.00 0.00 0.00 0.00 0.00 0.00 0.00 0.02 0.02 0.02 0.03 0.02 0.03 0.05 0.03 0.00 0.00 0.00 0.00 0.00 0.01 0.06 0.03 0.05 0.10 0.15 0.23 0.27 0.25 0.21 0.12 0.10 0.05 0.16 0.17 0.20 0.24 0.24 0.14 0.08 0.05 0.01 0.03 0.03 0.03

GFSGBSN_prec_precacc12_201.txt.gz
Total_Precipitation_Accumulation
0.00 0.00 0.00 0.00 0.00 0.00 0.00 0.00 0.00 0.00 0.00 0.00 0.00 0.00 0.00 0.00 0.00 0.00 0.00 0.00 0.00 0.00 0.00 0.00 0.00 0.00 0.00 0.00 0.00 0.00 0.00 0.00 0.00 0.00 0.00 0.00 0.00 0.00 0.00 0.00 0.00 0.00 0.00 0.00 0.00 0.00 0.00
0.05 0.01 0.00 0.00 0.00 0.00 0.00 0.00 0.00 0.00 0.00 0.00 0.00 0.00 0.00 0.00 0.00 0.00 0.00 0.00 0.00 0.00 0.00 0.00 0.00 0.00 0.00 0.00 0.00 0.00 0.00 0.00 0.00 0.00 0.00 0.00 0.00 0.00 0.00 0.00 0.00 0.00 0.00 0.00 0.00 0.00 0.00
0.07 0.05 0.02 0.00 0.00 0.00 0.00 0.00 0.00 0.00 0.00 0.00 0.00 0.00 0.00 0.00 0.00 0.00 0.00 0.00 0.00 0.00 0.00 0.00 0.00 0.00 0.00 0.00 0.00 0.00 0.00 0.00 0.00 0.00 0.00 0.00 0.00 0.00 0.00 0.00 0.00 0.00 0.00 0.00 0.00 0.00 0.00
0.10 0.09 0.06 0.03 0.01 0.00 0.00 0.00 0.00 0.00 0.00 0.00 0.00 0.00 0.00 0.00 0.00 0.00 0.00 0.00 0.00 0.00 0.00 0.00 0.00 0.00 0.00 0.00 0.00 0.00 0.00 0.00 0.00 0.00 0.00 0.00 0.00 0.00 0.00 0.00 0.00 0.00 0.00 0.00 0.00 0.00 0.00
0.12 0.10 0.10 0.08 0.05 0.01 0.01 0.00 0.00 0.00 0.00 0.00 0.00 0.00 0.00 0.00 0.00 0.00 0.00 0.00 0.00 0.00 0.00 0.00 0.00 0.00 0.00 0.00 0.00 0.00 0.00 0.00 0.00 0.00 0.00 0.00 0.00 0.00 0.00 0.00 0.00 0.00 0.00 0.00 0.00 0.00 0.00
0.15 0.12 0.10 0.09 0.09 0.07 0.04 0.02 0.01 0.00 0.01 0.01 0.00 0.00 0.00 0.00 0.00 0.00 0.00 0.00 0.00 0.00 0.00 0.00 0.00 0.00 0.00 0.00 0.00 0.00 0.00 0.00 0.00 0.00 0.00 0.00 0.00 0.00 0.00 0.00 0.00 0.00 0.00 0.00 0.00 0.00 0.00
0.22 0.16 0.13 0.13 0.11 0.09 0.08 0.08 0.06 0.04 0.01 0.02 0.02 0.02 0.01 0.01 0.01 0.00 0.00 0.00 0.00 0.00 0.00 0.00 0.00 0.00 0.00 0.00 0.00 0.00 0.00 0.00 0.00 0.00 0.00 0.00 0.00 0.00 0.00 0.00 0.00 0.00 0.00 0.00 0.00 0.00 0.00
0.32 0.28 0.24 0.18 0.15 0.13 0.11 0.09 0.08 0.11 0.09 0.05 0.03 0.03 0.03 0.02 0.02 0.02 0.01 0.02 0.00 0.00 0.00 0.00 0.00 0.00 0.00 0.00 0.00 0.00 0.00 0.00 0.00 0.00 0.00 0.00 0.00 0.00 0.00 0.00 0.00 0.00 0.00 0.00 0.00 0.00 0.00
0.46 0.46 0.39 0.29 0.22 0.18 0.15 0.14 0.15 0.13 0.14 0.11 0.05 0.05 0.06 0.06 0.06 0.03 0.00 0.00 0.00 0.00 0.02 0.00 0.00 0.00 0.00 0.00 0.00 0.00 0.00 0.00 0.00 0.00 0.00 0.00 0.00 0.00 0.00 0.00 0.00 0.00 0.00 0.00 0.00 0.00 0.00
0.38 0.43 0.47 0.49 0.46 0.39 0.29 0.23 0.19 0.15 0.19 0.24 0.14 0.08 0.07 0.08 0.08 0.02 0.03 0.01 0.01 0.07 0.41 0.09 0.00 0.00 0.00 0.00 0.00 0.00 0.00 0.00 0.00 0.00 0.00 0.00 0.00 0.00 0.00 0.00 0.00 0.00 0.00 0.00 0.00 0.00 0.00
0.34 0.47 0.53 0.55 0.59 0.62 0.62 0.53 0.41 0.33 0.25 0.23 0.25 0.20 0.16 0.10 0.09 0.09 0.07 0.02 0.06 0.41 1.46 0.20 0.00 0.00 0.00 0.00 0.00 0.00 0.00 0.00 0.00 0.00 0.00 0.00 0.00 0.00 0.00 0.00 0.00 0.00 0.00 0.00 0.00 0.00 0.00
0.05 0.12 0.30 0.52 0.75 0.86 0.88 0.87 0.86 0.77 0.66 0.63 0.48 0.33 0.19 0.17 0.14 0.12 0.07 0.04 0.22 1.27 1.59 0.12 0.00 0.00 0.00 0.00 0.00 0.00 0.00 0.00 0.00 0.00 0.00 0.00 0.00 0.00 0.00 0.00 0.00 0.00 0.00 0.00 0.00 0.00 0.00
0.05 0.09 0.12 0.22 0.47 0.74 0.91 1.07 1.13 1.18 1.24 1.24 1.22 0.91 0.38 0.19 0.22 0.12 0.11 0.23 1.01 1.68 0.55 0.03 0.00 0.00 0.00 0.00 0.00 0.00 0.00 0.00 0.00 0.00 0.00 0.00 0.00 0.00 0.00 0.00 0.00 0.00 0.00 0.00 0.00 0.00 0.00
0.06 0.09 0.10 0.22 0.34 0.49 0.71 0.90 1.10 1.32 1.51 1.63 1.68 1.62 1.44 0.89 0.37 0.18 0.19 0.60 1.39 0.78 0.12 0.01 0.00 0.00 0.00 0.00 0.00 0.00 0.00 0.00 0.00 0.00 0.00 0.00 0.00 0.00 0.00 0.00 0.00 0.00 0.00 0.00 0.00 0.00 0.00
0.07 0.08 0.12 0.17 0.26 0.40 0.56 0.77 1.00 1.26 1.49 1.65 1.75 2.03 2.32 1.94 0.83 0.40 0.51 1.19 0.99 0.33 0.09 0.03 0.02 0.04 0.01 0.00 0.00 0.00 0.00 0.00 0.00 0.00 0.00 0.00 0.00 0.00 0.00 0.00 0.00 0.00 0.00 0.00 0.00 0.00 0.00
0.08 0.09 0.10 0.17 0.28 0.39 0.52 0.63 0.81 0.95 1.04 1.15 1.44 1.77 1.87 1.43 1.14 0.99 1.16 1.30 0.63 0.18 0.06 0.03 0.10 0.14 0.05 0.01 0.01 0.00 0.00 0.00 0.00 0.00 0.00 0.00 0.00 0.00 0.00 0.00 0.00 0.00 0.00 0.01 0.02 0.05 0.04
0.10 0.13 0.12 0.14 0.23 0.33 0.51 0.60 0.78 0.90 0.80 0.80 0.93 1.11 1.30 1.17 1.29 1.48 1.54 1.02 0.39 0.06 0.04 0.11 0.12 0.12 0.10 0.05 0.02 0.02 0.02 0.00 0.00 0.00 0.00 0.00 0.00 0.00 0.00 0.00 0.00 0.00 0.00 0.03 0.09 0.10 0.18
0.20 0.18 0.20 0.18 0.21 0.25 0.43 0.53 0.71 0.70 0.78 0.93 0.89 0.86 0.76 0.77 0.96 1.12 0.72 0.33 0.11 0.03 0.03 0.07 0.06 0.04 0.03 0.01 0.02 0.01 0.01 0.00 0.00 0.00 0.00 0.00 0.00 0.00 0.00 0.00 0.00 0.00 0.00 0.01 0.07 0.08 0.09
0.44 0.39 0.34 0.35 0.32 0.33 0.40 0.54 0.62 0.61 0.61 0.84 0.93 0.91 0.94 0.75 0.64 0.38 0.18 0.11 0.08 0.04 0.03 0.03 0.01 0.00 0.00 0.00 0.02 0.00 0.00 0.00 0.00 0.00 0.00 0.00 0.00 0.01 0.01 0.00 0.00 0.00 0.00 0.00 0.00 0.01 0.02
0.78 0.68 0.51 0.50 0.52 0.48 0.50 0.54 0.58 0.72 0.69 0.47 0.77 1.11 1.39 1.12 0.57 0.14 0.10 0.12 0.07 0.04 0.03 0.02 0.02 0.01 0.01 0.01 0.00 0.00 0.01 0.00 0.00 0.00 0.00 0.00 0.00 0.01 0.01 0.00 0.00 0.00 0.00 0.00 0.01 0.04 0.06
1.04 0.90 0.81 0.68 0.63 0.60 0.62 0.73 0.84 0.97 0.83 0.66 0.71 0.64 0.50 0.51 0.32 0.11 0.08 0.11 0.08 0.09 0.06 0.03 0.03 0.01 0.01 0.03 0.02 0.01 0.00 0.00 0.00 0.00 0.00 0.01 0.01 0.01 0.00 0.00 0.00 0.00 0.00 0.00 0.00 0.01 0.06
1.17 1.08 0.96 0.93 0.86 0.86 0.98 1.06 1.10 0.89 0.64 0.54 0.67 0.36 0.16 0.10 0.06 0.07 0.14 0.20 0.10 0.05 0.04 0.04 0.01 0.00 0.00 0.01 0.01 0.01 0.00 0.00 0.00 0.00 0.00 0.00 0.01 0.02 0.01 0.00 0.00 0.00 0.00 0.00 0.00 0.00 0.01
1.24 1.21 1.06 1.26 1.30 1.20 1.25 0.97 0.71 0.50 0.37 0.36 0.30 0.13 0.11 0.24 0.17 0.12 0.17 0.15 0.08 0.01 0.03 0.00 0.00 0.00 0.01 0.00 0.00 0.00 0.00 0.00 0.01 0.00 0.00 0.00 0.01 0.02 0.02 0.00 0.01 0.02 0.00 0.00 0.00 0.00 0.01
1.21 1.35 1.29 1.34 1.34 1.09 0.82 0.54 0.35 0.20 0.16 0.20 0.11 0.10 0.15 0.35 0.19 0.10 0.05 0.03 0.03 0.01 0.03 0.00 0.00 0.00 0.00 0.00 0.00 0.00 0.00 0.00 0.00 0.00 0.00 0.00 0.00 0.01 0.01 0.02 0.04 0.01 0.00 0.00 0.01 0.00 0.00
0.90 0.86 0.81 0.80 0.74 0.50 0.37 0.26 0.12 0.09 0.06 0.09 0.07 0.05 0.09 0.23 0.14 0.10 0.06 0.05 0.04 0.04 0.02 0.00 0.00 0.00 0.00 0.00 0.01 0.00 0.00 0.00 0.00 0.00 0.00 0.00 0.00 0.01 0.02 0.02 0.02 0.00 0.00 0.01 0.05 0.09 0.02
0.49 0.51 0.43 0.37 0.31 0.20 0.17 0.12 0.06 0.05 0.06 0.08 0.07 0.02 0.03 0.12 0.11 0.05 0.04 0.02 0.04 0.03 0.02 0.01 0.00 0.00 0.00 0.01 0.01 0.00 0.00 0.00 0.00 0.00 0.00 0.00 0.03 0.08 0.11 0.15 0.06 0.00 0.00 0.00 0.02 0.06 0.02
0.14 0.15 0.11 0.07 0.06 0.03 0.02 0.01 0.01 0.01 0.01 0.03 0.01 0.00 0.00 0.04 0.07 0.02 0.02 0.03 0.01 0.00 0.01 0.01 0.00 0.00 0.00 0.01 0.02 0.01 0.00 0.00 0.01 0.02 0.01 0.02 0.05 0.11 0.12 0.17 0.06 0.01 0.00 0.01 0.07 0.06 0.05
0.05 0.02 0.01 0.01 0.00 0.00 0.00 0.00 0.00 0.00 0.00 0.01 0.01 0.01 0.03 0.03 0.03 0.00 0.00 0.00 0.00 0.00 0.01 0.02 0.01 0.01 0.02 0.03 0.02 0.01 0.01 0.02 0.05 0.02 0.03 0.04 0.08 0.07 0.10 0.14 0.09 0.06 0.02 0.06 0.04 0.02 0.02
0.00 0.00 0.00 0.00 0.00 0.00 0.00 0.00 0.00 0.00 0.00 0.01 0.01 0.01 0.01 0.02 0.02 0.00 0.00 0.00 0.00 0.00 0.00 0.02 0.01 0.02 0.05 0.06 0.06 0.10 0.13 0.11 0.04 0.04 0.02 0.12 0.13 0.16 0.20 0.18 0.07 0.06 0.04 0.01 0.02 0.03 0.03

GFSGBSN_prec_precacc12_204.txt.gz
Total_Precipitation_Accumulation
0.07 0.05 0.03 0.00 0.00 0.00 0.00 0.00 0.00 0.00 0.00 0.00 0.00 0.00 0.00 0.00 0.00 0.00 0.00 0.00 0.00 0.00 0.00 0.00 0.00 0.00 0.00 0.00 0.00 0.00 0.00 0.00 0.00 0.00 0.00 0.00 0.00 0.00 0.00 0.00 0.00 0.00 0.00 0.00 0.00 0.00 0.00
0.08 0.09 0.07 0.04 0.01 0.00 0.00 0.00 0.00 0.00 0.00 0.00 0.00 0.00 0.00 0.00 0.00 0.00 0.00 0.00 0.00 0.00 0.00 0.00 0.00 0.00 0.00 0.00 0.00 0.00 0.00 0.00 0.00 0.00 0.00 0.00 0.00 0.00 0.00 0.00 0.00 0.00 0.00 0.00 0.00 0.00 0.00
0.08 0.08 0.07 0.06 0.05 0.01 0.00 0.00 0.00 0.00 0.00 0.00 0.00 0.00 0.00 0.00 0.00 0.00 0.00 0.00 0.00 0.00 0.00 0.00 0.00 0.00 0.00 0.00 0.00 0.00 0.00 0.00 0.00 0.00 0.00 0.00 0.00 0.00 0.00 0.00 0.00 0.00 0.00 0.00 0.00 0.00 0.00
0.10 0.10 0.10 0.10 0.09 0.06 0.03 0.00 0.00 0.00 0.00 0.00 0.00 0.00 0.00 0.00 0.00 0.00 0.00 0.00 0.00 0.00 0.00 0.00 0.00 0.00 0.00 0.00 0.00 0.00 0.00 0.00 0.00 0.00 0.00 0.00 0.00 0.00 0.00 0.00 0.00 0.00 0.00 0.00 0.00 0.00 0.00
0.12 0.10 0.11 0.12 0.12 0.11 0.09 0.06 0.04 0.01 0.00 0.00 0.00 0.00 0.00 0.00 0.00 0.00 0.00 0.00 0.00 0.00 0.00 0.00 0.00 0.00 0.00 0.00 0.00 0.00 0.00 0.00 0.00 0.00 0.00 0.00 0.00 0.00 0.00 0.00 0.00 0.00 0.00 0.00 0.00 0.00 0.00
0.16 0.13 0.10 0.10 0.12 0.14 0.15 0.13 0.12 0.09 0.03 0.00 0.00 0.00 0.00 0.00 0.00 0.00 0.00 0.00 0.00 0.00 0.00 0.00 0.00 0.00 0.00 0.00 0.00 0.00 0.00 0.00 0.00 0.00 0.00 0.00 0.00 0.00 0.00 0.00 0.00 0.00 0.00 0.00 0.00 0.00 0.00
0.23 0.17 0.14 0.13 0.12 0.11 0.13 0.17 0.17 0.14 0.13 0.08 0.01 0.01 0.01 0.01 0.01 0.00 0.00 0.01 0.02 0.01 0.00 0.00 0.00 0.00 0.00 0.00 0.00 0.00 0.00 0.00 0.00 0.00 0.00 0.00 0.00 0.00 0.00 0.00 0.00 0.00 0.00 0.00 0.00 0.00 0.00
0.26 0.27 0.24 0.18 0.15 0.14 0.13 0.13 0.14 0.18 0.20 0.16 0.09 0.06 0.04 0.02 0.02 0.02 0.02 0.03 0.01 0.00 0.00 0.00 0.00 0.00 0.00 0.00 0.00 0.00 0.00 0.00 0.00 0.00 0.00 0.00 0.00 0.00 0.00 0.00 0.00 0.00 0.00 0.00 0.00 0.00 0.00
0.23 0.27 0.31 0.28 0.22 0.18 0.15 0.14 0.16 0.17 0.16 0.17 0.16 0.14 0.13 0.10 0.07 0.04 0.01 0.01 0.00 0.00 0.03 0.01 0.00 0.00 0.00 0.00 0.00 0.00 0.00 0.00 0.00 0.00 0.00 0.00 0.00 0.00 0.00 0.00 0.00 0.00 0.00 0.00 0.00 0.00 0.00
0.16 0.18 0.24 0.34 0.41 0.38 0.29 0.21 0.19 0.20 0.23 0.25 0.23 0.26 0.32 0.27 0.17 0.03 0.03 0.01 0.02 0.08 0.42 0.10 0.00 0.00 0.00 0.00 0.00 0.00 0.00 0.00 0.00 0.00 0.00 0.00 0.00 0.00 0.00 0.00 0.00 0.00 0.00 0.00 0.00 0.00 0.00
0.13 0.21 0.25 0.28 0.38 0.46 0.48 0.45 0.38 0.33 0.29 0.29 0.36 0.43 0.54 0.32 0.14 0.07 0.04 0.02 0.08 0.43 1.39 0.19 0.00 0.00 0.00 0.00 0.00 0.00 0.00 0.00 0.00 0.00 0.00 0.00 0.00 0.00 0.00 0.00 0.00 0.00 0.00 0.00 0.00 0.00 0.00
0.03 0.06 0.16 0.32 0.46 0.55 0.58 0.59 0.65 0.65 0.57 0.54 0.48 0.62 0.67 0.63 0.33 0.12 0.06 0.06 0.27 1.22 1.49 0.11 0.00 0.00 0.00 0.00 0.00 0.00 0.00 0.00 0.00 0.00 0.00 0.00 0.00 0.00 0.00 0.00 0.00 0.00 0.00 0.00 0.00 0.00 0.00
0.03 0.03 0.04 0.05 0.13 0.29 0.46 0.63 0.77 0.88 0.94 1.00 1.08 1.05 0.76 0.67 0.54 0.13 0.09 0.29 1.14 1.70 0.53 0.03 0.00 0.00 0.00 0.00 0.00 0.00 0.00 0.00 0.00 0.00 0.00 0.00 0.00 0.00 0.00 0.00 0.00 0.00 0.00 0.00 0.00 0.00 0.00
0.04 0.03 0.04 0.08 0.10 0.14 0.28 0.47 0.70 0.96 1.14 1.29 1.48 1.66 1.53 1.29 0.64 0.29 0.18 0.66 1.59 0.81 0.12 0.01 0.00 0.00 0.00 0.00 0.00 0.00 0.00 0.00 0.00 0.00 0.00 0.00 0.00 0.00 0.00 0.00 0.00 0.00 0.00 0.00 0.00 0.00 0.00
0.05 0.04 0.05 0.07 0.13 0.20 0.27 0.42 0.63 0.88 1.10 1.27 1.54 2.05 2.41 2.39 1.22 0.79 0.76 1.57 1.27 0.33 0.08 0.03 0.02 0.04 0.01 0.00 0.00 0.00 0.00 0.00 0.00 0.00 0.00 0.00 0.00 0.00 0.00 0.00 0.00 0.00 0.00 0.00 0.00 0.00 0.00
0.07 0.08 0.07 0.11 0.17 0.25 0.32 0.38 0.50 0.61 0.70 0.87 1.20 1.76 2.11 1.76 1.38 1.33 1.51 1.94 0.82 0.18 0.06 0.03 0.09 0.14 0.06 0.02 0.02 0.01 0.00 0.00 0.00 0.00 0.00 0.00 0.00 0.00 0.00 0.00 0.00 0.00 0.00 0.00 0.00 0.01 0.00
0.08 0.09 0.09 0.11 0.19 0.25 0.38 0.44 0.57 0.66 0.58 0.62 1.01 1.37 1.41 1.43 1.75 2.11 2.13 1.56 0.56 0.07 0.04 0.11 0.11 0.12 0.11 0.06 0.07 0.07 0.05 0.01 0.00 0.00 0.00 0.00 0.00 0.00 0.00 0.00 0.00 0.00 0.00 0.00 0.01 0.02 0.06
0.11 0.10 0.14 0.16 0.18 0.21 0.38 0.46 0.60 0.57 0.67 0.92 1.09 1.18 0.94 0.97 1.58 2.02 1.47 0.64 0.16 0.03 0.03 0.07 0.07 0.07 0.06 0.03 0.06 0.05 0.02 0.00 0.00 0.00 0.00 0.00 0.00 0.00 0.00 0.00 0.00 0.00 0.00 0.00 0.00 0.00 0.01
0.20 0.19 0.22 0.25 0.24 0.25 0.32 0.46 0.54 0.56 0.59 0.93 1.16 1.14 1.28 1.07 1.04 0.87 0.60 0.29 0.11 0.05 0.04 0.05 0.04 0.03 0.03 0.05 0.11 0.03 0.01 0.00 0.00 0.00 0.00 0.00 0.00 0.00 0.01 0.00 0.00 0.00 0.00 0.00 0.00 0.00 0.00
0.43 0.43 0.33 0.34 0.38 0.35 0.38 0.42 0.49 0.71 0.74 0.63 1.03 1.49 1.81 1.66 1.02 0.34 0.22 0.19 0.10 0.05 0.04 0.04 0.05 0.03 0.04 0.08 0.09 0.03 0.02 0.00 0.00 0.00 0.00 0.00 0.00 0.00 0.00 0.00 0.00 0.00 0.00 0.00 0.00 0.00 0.00
0.75 0.69 0.65 0.53 0.49 0.49 0.53 0.64 0.77 0.96 0.91 0.87 1.09 1.03 0.89 0.86 0.67 0.30 0.14 0.15 0.10 0.11 0.08 0.05 0.07 0.04 0.03 0.06 0.06 0.02 0.01 0.00 0.00 0.00 0.00 0.00 0.00 0.00 0.00 0.00 0.00 0.00 0.00 0.00 0.00 0.00 0.00
0.97 0.95 0.88 0.83 0.74 0.79 0.92 1.01 1.09 0.93 0.79 0.93 1.13 0.75 0.36 0.19 0.11 0.12 0.20 0.29 0.13 0.07 0.06 0.06 0.02 0.01 0.00 0.01 0.02 0.02 0.00 0.00 0.00 0.00 0.00 0.00 0.00 0.00 0.01 0.00 0.00 0.00 0.00 0.00 0.00 0.00 0.00
1.38 1.35 1.12 1.22 1.23 1.15 1.22 0.97 0.73 0.58 0.60 1.00 0.71 0.29 0.17 0.36 0.27 0.18 0.25 0.22 0.13 0.06 0.08 0.01 0.01 0.03 0.05 0.03 0.00 0.00 0.00 0.01 0.01 0.00 0.00 0.00 0.01 0.03 0.03 0.00 0.00 0.00 0.00 0.00 0.00 0.00 0.01
1.69 1.69 1.41 1.35 1.30 1.07 0.85 0.58 0.42 0.38 0.41 0.64 0.32 0.16 0.21 0.49 0.35 0.22 0.11 0.06 0.06 0.06 0.13 0.08 0.05 0.06 0.08 0.03 0.02 0.03 0.02 0.01 0.00 0.00 0.00 0.00 0.00 0.01 0.00 0.00 0.01 0.00 0.00 0.00 0.00 0.00 0.00
1.10 1.02 0.94 0.92 0.86 0.60 0.47 0.33 0.25 0.28 0.29 0.30 0.16 0.11 0.17 0.37 0.30 0.28 0.18 0.13 0.14 0.15 0.16 0.15 0.09 0.03 0.01 0.01 0.05 0.06 0.04 0.02 0.01 0.00 0.00 0.00 0.00 0.00 0.00 0.00 0.00 0.00 0.00 0.00 0.01 0.02 0.00
0.76 0.79 0.78 0.73 0.63 0.40 0.32 0.23 0.16 0.16 0.18 0.23 0.23 0.11 0.11 0.28 0.29 0.17 0.21 0.16 0.17 0.17 0.16 0.08 0.04 0.02 0.01 0.01 0.02 0.01 0.01 0.00 0.00 0.00 0.00 0.00 0.00 0.03 0.06 0.10 0.04 0.00 0.00 0.00 0.02 0.02 0.01
0.30 0.34 0.35 0.35 0.42 0.34 0.25 0.19 0.15 0.16 0.11 0.12 0.12 0.10 0.15 0.29 0.32 0.12 0.15 0.18 0.09 0.03 0.06 0.05 0.02 0.01 0.00 0.00 0.00 0.00 0.00 0.00 0.00 0.00 0.00 0.00 0.01 0.03 0.06 0.12 0.05 0.01 0.00 0.01 0.05 0.02 0.03
0.06 0.08 0.09 0.10 0.12 0.15 0.14 0.16 0.17 0.15 0.08 0.05 0.07 0.08 0.15 0.26 0.30 0.11 0.06 0.04 0.01 0.00 0.03 0.04 0.01 0.01 0.01 0.01 0.01 0.00 0.00 0.00 0.00 0.00 0.00 0.00 0.03 0.03 0.03 0.05 0.05 0.04 0.01 0.03 0.03 0.00 0.01
0.00 0.00 0.00 0.01 0.02 0.03 0.03 0.04 0.06 0.06 0.02 0.01 0.03 0.04 0.05 0.09 0.11 0.04 0.01 0.00 0.00 0.00 0.00 0.00 0.00 0.00 0.01 0.02 0.02 0.02 0.02 0.02 0.00 0.00 0.01 0.08 0.09 0.13 0.16 0.11 0.03 0.02 0.02 0.01 0.01 0.01 0.01

GFSGBSN_prec_precacc12_207.txt.gz
Total_Precipitation_Accumulation
0.09 0.10 0.11 0.10 0.08 0.04 0.01 0.00 0.00 0.00 0.00 0.00 0.00 0.00 0.00 0.00 0.00 0.00 0.00 0.00 0.00 0.00 0.00 0.00 0.00 0.00 0.00 0.00 0.00 0.00 0.00 0.00 0.00 0.00 0.00 0.00 0.00 0.00 0.00 0.00 0.00 0.00 0.00 0.00 0.00 0.00 0.00
0.09 0.09 0.10 0.12 0.13 0.11 0.07 0.02 0.00 0.00 0.00 0.00 0.00 0.00 0.00 0.00 0.00 0.00 0.00 0.00 0.00 0.00 0.00 0.00 0.00 0.00 0.00 0.00 0.00 0.00 0.00 0.00 0.00 0.00 0.00 0.00 0.00 0.00 0.00 0.00 0.00 0.00 0.00 0.00 0.00 0.00 0.00
0.08 0.08 0.08 0.09 0.13 0.13 0.12 0.09 0.04 0.00 0.00 0.00 0.00 0.00 0.00 0.00 0.00 0.00 0.00 0.00 0.00 0.00 0.00 0.00 0.00 0.00 0.00 0.00 0.00 0.00 0.00 0.00 0.00 0.00 0.00 0.00 0.00 0.00 0.00 0.00 0.00 0.00 0.00 0.00 0.00 0.00 0.00
0.11 0.11 0.10 0.10 0.11 0.11 0.12 0.13 0.11 0.06 0.01 0.00 0.00 0.00 0.00 0.00 0.00 0.00 0.00 0.00 0.00 0.00 0.00 0.00 0.00 0.00 0.00 0.00 0.00 0.00 0.00 0.00 0.00 0.00 0.00 0.00 0.00 0.00 0.00 0.00 0.00 0.00 0.00 0.00 0.00 0.00 0.00
0.13 0.11 0.11 0.12 0.12 0.13 0.13 0.15 0.16 0.14 0.07 0.01 0.00 0.00 0.00 0.00 0.00 0.00 0.00 0.00 0.01 0.00 0.01 0.00 0.00 0.00 0.00 0.00 0.00 0.00 0.00 0.00 0.00 0.00 0.00 0.00 0.00 0.00 0.00 0.00 0.00 0.00 0.00 0.00 0.00 0.00 0.00
0.16 0.13 0.11 0.10 0.12 0.14 0.16 0.16 0.19 0.21 0.19 0.10 0.03 0.00 0.00 0.00 0.00 0.00 0.00 0.00 0.01 0.01 0.00 0.00 0.00 0.00 0.00 0.00 0.00 0.00 0.00 0.00 0.00 0.00 0.00 0.00 0.00 0.00 0.00 0.00 0.00 0.00 0.00 0.00 0.00 0.00 0.00
0.13 0.14 0.14 0.14 0.13 0.11 0.14 0.19 0.21 0.23 0.27 0.29 0.21 0.12 0.02 0.00 0.00 0.00 0.00 0.01 0.03 0.03 0.02 0.00 0.00 0.00 0.00 0.00 0.00 0.00 0.00 0.00 0.00 0.00 0.00 0.00 0.00 0.00 0.00 0.00 0.00 0.00 0.00 0.00 0.00 0.00 0.00
0.05 0.12 0.15 0.16 0.15 0.14 0.13 0.14 0.16 0.22 0.28 0.29 0.29 0.37 0.32 0.09 0.01 0.01 0.02 0.04 0.01 0.00 0.00 0.00 0.00 0.00 0.00 0.00 0.00 0.00 0.00 0.00 0.00 0.00 0.00 0.00 0.00 0.00 0.00 0.00 0.00 0.00 0.00 0.00 0.00 0.00 0.00
0.01 0.06 0.13 0.13 0.16 0.16 0.15 0.15 0.16 0.18 0.21 0.31 0.39 0.42 0.48 0.50 0.26 0.09 0.02 0.01 0.00 0.00 0.03 0.01 0.00 0.00 0.00 0.00 0.00 0.00 0.00 0.00 0.00 0.00 0.00 0.00 0.00 0.00 0.00 0.00 0.00 0.00 0.00 0.00 0.00 0.00 0.00
0.01 0.02 0.06 0.13 0.18 0.21 0.22 0.20 0.19 0.20 0.25 0.29 0.36 0.56 0.76 0.94 0.93 0.29 0.06 0.00 0.02 0.09 0.39 0.08 0.00 0.00 0.00 0.00 0.00 0.00 0.00 0.00 0.00 0.00 0.00 0.00 0.00 0.00 0.00 0.00 0.00 0.00 0.00 0.00 0.00 0.00 0.00
0.01 0.03 0.03 0.04 0.08 0.18 0.27 0.31 0.35 0.33 0.29 0.30 0.40 0.55 0.97 1.09 0.82 0.31 0.03 0.01 0.12 0.49 1.22 0.14 0.00 0.00 0.00 0.00 0.00 0.00 0.00 0.00 0.00 0.00 0.00 0.00 0.00 0.00 0.00 0.00 0.00 0.00 0.00 0.00 0.00 0.00 0.00
0.01 0.02 0.04 0.08 0.09 0.11 0.16 0.26 0.43 0.55 0.55 0.53 0.49 0.66 0.94 1.05 1.24 0.50 0.05 0.10 0.52 1.47 1.25 0.05 0.00 0.00 0.00 0.00 0.00 0.00 0.00 0.00 0.00 0.00 0.00 0.00 0.00 0.00 0.00 0.00 0.00 0.00 0.00 0.00 0.00 0.00 0.00
0.01 0.02 0.02 0.03 0.07 0.12 0.16 0.23 0.37 0.57 0.72 0.82 0.93 0.95 0.82 0.82 1.05 0.51 0.20 0.50 1.59 1.76 0.35 0.01 0.00 0.00 0.00 0.00 0.00 0.00 0.00 0.00 0.00 0.00 0.00 0.00 0.00 0.00 0.00 0.00 0.00 0.00 0.00 0.00 0.00 0.00 0.00
0.02 0.02 0.02 0.03 0.03 0.07 0.12 0.19 0.29 0.48 0.70 0.87 1.06 1.27 1.29 1.17 0.84 0.70 0.53 1.20 2.05 0.81 0.06 0.00 0.00 0.00 0.00 0.00 0.00 0.00 0.00 0.00 0.00 0.00 0.00 0.00 0.00 0.00 0.00 0.00 0.00 0.00 0.00 0.00 0.00 0.00 0.00
0.04 0.03 0.02 0.03 0.05 0.07 0.10 0.15 0.25 0.43 0.66 0.92 1.28 1.76 2.17 2.31 1.48 1.04 1.07 2.24 1.60 0.27 0.03 0.02 0.01 0.04 0.00 0.00 0.00 0.00 0.00 0.00 0.00 0.00 0.00 0.00 0.00 0.00 0.00 0.00 0.00 0.00 0.00 0.00 0.00 0.00 0.00
0.07 0.05 0.03 0.03 0.05 0.08 0.13 0.18 0.33 0.43 0.50 0.70 1.03 1.48 1.72 1.60 1.59 1.58 1.65 2.24 1.03 0.17 0.06 0.03 0.08 0.13 0.05 0.01 0.01 0.00 0.00 0.00 0.00 0.00 0.00 0.00 0.00 0.00 0.00 0.00 0.00 0.00 0.00 0.01 0.04 0.02 0.00
0.11 0.09 0.07 0.05 0.06 0.10 0.21 0.33 0.42 0.53 0.50 0.54 0.85 1.08 1.06 1.31 2.02 2.49 2.67 1.99 0.66 0.08 0.03 0.10 0.10 0.12 0.10 0.05 0.07 0.07 0.05 0.01 0.00 0.00 0.00 0.00 0.00 0.00 0.00 0.00 0.00 0.00 0.00 0.00 0.00 0.00 0.01
0.09 0.10 0.10 0.10 0.09 0.13 0.29 0.41 0.53 0.51 0.62 0.89 1.04 1.08 0.79 0.92 2.08 2.54 1.89 1.02 0.32 0.06 0.03 0.07 0.06 0.06 0.05 0.03 0.06 0.05 0.02 0.00 0.00 0.00 0.00 0.00 0.01 0.00 0.00 0.00 0.00 0.00 0.00 0.00 0.00 0.00 0.00
0.10 0.10 0.15 0.16 0.15 0.14 0.23 0.38 0.48 0.49 0.54 0.91 1.15 1.07 1.24 1.19 1.41 1.25 0.98 0.58 0.21 0.08 0.06 0.07 0.04 0.03 0.03 0.05 0.12 0.04 0.01 0.00 0.00 0.00 0.00 0.00 0.02 0.02 0.01 0.00 0.00 0.00 0.00 0.00 0.00 0.00 0.00
0.18 0.16 0.15 0.24 0.25 0.20 0.23 0.30 0.37 0.54 0.57 0.71 1.09 1.47 1.73 1.94 1.27 0.58 0.40 0.37 0.19 0.07 0.04 0.04 0.05 0.04 0.05 0.10 0.10 0.03 0.03 0.00 0.00 0.00 0.00 0.00 0.01 0.00 0.01 0.00 0.00 0.00 0.00 0.00 0.00 0.00 0.00
0.34 0.36 0.26 0.33 0.38 0.31 0.32 0.45 0.55 0.67 0.80 0.99 1.22 1.26 0.96 0.98 0.98 0.54 0.24 0.17 0.12 0.13 0.09 0.06 0.09 0.06 0.04 0.07 0.07 0.03 0.01 0.00 0.00 0.00 0.00 0.00 0.00 0.00 0.00 0.00 0.00 0.00 0.00 0.00 0.00 0.00 0.00
0.58 0.73 0.60 0.53 0.54 0.56 0.64 0.78 0.85 0.79 0.81 1.12 1.40 0.99 0.52 0.23 0.19 0.28 0.27 0.34 0.13 0.07 0.06 0.06 0.03 0.02 0.01 0.02 0.03 0.03 0.01 0.00 0.00 0.00 0.00 0.00 0.00 0.00 0.01 0.00 0.00 0.00 0.00 0.00 0.00 0.00 0.00
1.22 1.21 0.93 0.94 0.93 0.88 1.01 0.82 0.63 0.53 0.70 1.27 1.08 0.40 0.31 0.39 0.30 0.28 0.29 0.25 0.14 0.06 0.08 0.01 0.01 0.04 0.06 0.06 0.03 0.02 0.02 0.02 0.02 0.01 0.01 0.00 0.01 0.03 0.05 0.00 0.00 0.01 0.00 0.00 0.00 0.00 0.00
1.65 1.54 1.23 1.16 1.08 0.86 0.72 0.52 0.38 0.37 0.47 0.81 0.57 0.25 0.40 0.71 0.37 0.27 0.13 0.06 0.06 0.06 0.13 0.08 0.05 0.11 0.17 0.07 0.08 0.16 0.14 0.10 0.07 0.03 0.01 0.02 0.03 0.05 0.05 0.01 0.02 0.00 0.00 0.00 0.00 0.00 0.00
1.21 1.03 0.89 0.86 0.78 0.53 0.42 0.28 0.23 0.30 0.33 0.34 0.28 0.27 0.29 0.58 0.36 0.29 0.20 0.14 0.15 0.16 0.21 0.20 0.17 0.11 0.09 0.07 0.24 0.33 0.27 0.19 0.15 0.08 0.03 0.02 0.01 0.03 0.02 0.01 0.00 0.00 0.00 0.00 0.00 0.00 0.00
0.99 1.00 0.91 0.78 0.66 0.42 0.33 0.23 0.18 0.19 0.27 0.27 0.31 0.39 0.27 0.32 0.40 0.20 0.24 0.18 0.21 0.25 0.35 0.27 0.20 0.21 0.18 0.19 0.18 0.13 0.07 0.03 0.02 0.02 0.01 0.00 0.00 0.01 0.02 0.03 0.01 0.00 0.00 0.00 0.01 0.01 0.00
0.49 0.65 0.60 0.55 0.55 0.42 0.32 0.24 0.21 0.21 0.18 0.16 0.19 0.30 0.37 0.33 0.37 0.18 0.17 0.22 0.17 0.11 0.18 0.24 0.27 0.25 0.15 0.13 0.13 0.07 0.02 0.00 0.00 0.00 0.00 0.00 0.00 0.00 0.01 0.05 0.02 0.00 0.00 0.00 0.01 0.00 0.00
0.10 0.23 0.40 0.46 0.46 0.43 0.36 0.30 0.27 0.21 0.12 0.07 0.12 0.21 0.32 0.40 0.47 0.23 0.16 0.10 0.09 0.05 0.14 0.23 0.13 0.12 0.10 0.05 0.05 0.03 0.01 0.00 0.00 0.00 0.00 0.00 0.00 0.00 0.00 0.02 0.02 0.01 0.00 0.00 0.00 0.00 0.00
0.00 0.02 0.09 0.19 0.36 0.44 0.43 0.38 0.32 0.22 0.13 0.05 0.09 0.15 0.27 0.30 0.37 0.18 0.12 0.08 0.06 0.04 0.08 0.14 0.09 0.06 0.05 0.04 0.02 0.01 0.00 0.00 0.00 0.00 0.00 0.00 0.01 0.05 0.10 0.10 0.02 0.01 0.01 0.01 0.01 0.00 0.00